Wetbulb
68.80 70.76 72.04 72.81 72.93 72.80 72.76 72.83 73.13 73.27 73.84 74.39 74.39 74.34 74.06 73.95 73.66 73.72 73.70 73.61 73.78 73.62 72.69 72.55 72.80 72.60 72.20 71.71 71.22 71.02 71.19 71.00 70.84 70.89 70.87 71.22 71.71 72.44 71.59 72.27 72.06 71.44 73.11
69.59 71.24 71.67 72.32 72.66 72.86 72.83 72.80 72.87 73.20 73.71 74.02 73.71 73.64 73.50 73.51 73.46 73.41 73.32 73.24 73.22 72.95 72.46 72.13 72.21 72.16 72.60 72.32 71.98 71.81 71.22 70.63 70.18 70.42 70.23 70.16 70.38 71.87 71.31 72.07 71.57 72.08 72.44
68.88 70.50 71.75 71.95 72.52 72.87 73.06 73.12 72.88 73.27 73.47 73.57 73.53 73.18 72.81 72.30 71.77 71.89 71.86 72.11 72.25 72.28 72.23 72.08 71.48 71.22 71.21 71.34 71.48 71.59 71.68 71.53 71.00 70.87 71.04 67.87 67.58 72.07 72.10 70.61 71.26 71.95 72.15
68.88 69.02 69.94 70.89 71.49 71.89 71.98 72.04 72.09 72.33 72.62 72.68 72.22 71.74 71.13 70.78 70.66 70.19 69.98 69.91 69.66 70.12 70.32 70.01 69.44 68.71 67.96 67.99 68.32 68.89 69.66 70.15 69.96 69.95 68.81 68.34 67.61 71.25 72.42 71.98 71.83 71.81 71.51
67.50 68.07 69.12 69.76 70.09 70.65 70.83 70.91 71.05 71.14 71.09 71.10 70.89 70.44 70.14 69.68 69.22 68.24 67.69 67.43 67.72 67.68 67.36 67.06 66.29 65.54 64.90 65.07 65.64 66.27 66.76 67.28 67.63 67.65 67.40 67.27 66.57 71.05 72.30 71.52 71.61 71.36 71.18
65.95 66.99 67.79 68.51 69.05 69.85 69.61 69.50 69.14 69.08 68.98 69.05 68.86 68.91 68.56 67.72 66.54 65.57 64.98 64.61 64.64 64.43 64.17 63.60 62.98 62.36 61.90 62.25 62.78 63.33 63.49 63.89 65.15 65.17 65.90 67.31 67.16 71.55 71.64 71.07 70.71 70.35 70.08
64.24 64.88 65.94 66.95 67.61 67.86 67.83 67.63 67.18 66.87 66.64 66.48 66.74 66.26 65.69 64.81 63.79 62.69 61.86 61.27 60.87 60.77 60.56 59.89 59.22 58.98 58.96 59.24 59.71 60.41 60.91 61.28 61.15 61.69 64.07 65.65 66.68 72.15 72.11 71.02 70.53 70.40 70.25
62.53 62.86 63.67 65.11 65.07 65.20 65.34 65.17 64.69 64.55 64.44 64.15 63.90 63.47 62.48 61.72 60.78 60.04 59.47 58.95 58.40 58.33 58.00 57.69 57.50 57.37 57.72 58.18 58.36 58.62 58.78 59.11 56.94 55.76 58.55 62.23 68.03 71.52 71.19 70.02 68.74 69.88 70.02
60.68 59.82 60.13 61.10 62.31 62.55 62.38 62.35 62.09 61.85 61.52 61.22 60.71 60.27 60.00 59.55 59.13 58.18 57.14 56.96 56.65 56.53 56.36 56.83 56.85 57.12 57.96 58.47 58.91 59.05 59.89 59.33 55.18 53.31 54.23 56.44 65.50 69.77 69.85 68.06 69.22 68.55 69.25
58.66 58.77 58.53 58.43 58.41 57.47 58.80 60.08 59.57 58.98 58.80 58.93 58.81 59.03 59.36 59.21 58.01 57.06 55.72 55.69 55.67 56.10 55.35 56.28 57.39 58.18 59.38 60.10 61.08 60.68 60.12 59.63 51.78 52.13 52.45 63.39 67.94 69.05 68.21 67.90 68.13 67.60 67.59
58.25 57.62 58.33 57.54 57.26 56.98 57.31 57.88 58.50 58.91 58.28 58.01 57.25 57.71 58.02 54.25 53.23 53.06 54.94 54.65 54.60 58.48 55.86 58.71 59.75 59.48 58.40 57.21 58.69 59.39 59.12 53.05 52.07 52.64 56.59 62.09 62.75 62.26 62.22 62.21 62.23 62.39 63.64
56.08 56.52 58.48 57.32 56.30 55.98 56.39 55.94 55.62 55.92 55.17 53.87 53.88 53.74 53.20 51.81 52.54 54.02 54.40 54.72 54.40 56.74 57.08 57.67 57.53 56.67 54.39 50.41 50.52 53.94 50.89 51.57 51.55 52.07 55.06 60.88 60.66 60.68 60.70 60.52 60.48 60.54 60.58
54.45 56.06 56.52 57.87 56.85 55.64 56.21 55.57 53.46 52.36 51.93 51.17 50.99 51.85 52.00 52.44 51.99 51.49 49.68 49.62 48.71 53.37 49.36 50.67 49.95 49.70 49.59 49.51 49.59 49.45 50.28 50.34 49.67 50.90 53.43 59.64 59.79 59.51 59.80 59.70 59.48 59.55 59.55
53.49 52.94 53.78 55.91 57.13 57.02 55.52 52.73 51.24 51.41 50.70 49.41 48.82 49.82 50.06 49.79 48.88 48.29 48.08 47.71 47.29 47.44 47.04 47.32 47.17 47.95 48.29 49.48 49.18 49.55 49.29 48.99 49.31 50.20 51.19 58.43 59.14 59.33 59.63 59.39 59.10 58.75 59.05
51.88 52.21 52.24 53.96 54.64 54.14 51.45 50.07 49.60 49.37 49.28 48.19 47.84 48.36 48.65 47.79 47.44 47.47 46.58 46.46 46.35 46.18 46.17 45.73 46.08 46.49 46.78 48.23 48.44 48.26 47.88 48.07 48.76 49.46 49.54 57.27 58.50 57.79 59.91 60.70 60.61 59.79 59.75
52.01 51.54 52.11 52.91 54.23 52.87 50.00 49.62 48.74 49.08 48.07 47.36 46.78 46.85 47.78 46.69 46.51 46.19 45.64 45.23 45.44 45.74 45.31 45.18 44.66 44.87 45.18 46.61 46.58 46.72 46.80 47.66 48.58 49.23 51.42 51.89 56.84 55.92 56.70 59.44 60.59 60.90 61.07
50.96 51.72 51.58 51.75 51.24 50.68 49.66 49.17 48.26 49.11 48.18 46.58 46.07 45.94 46.05 45.94 45.86 45.21 44.59 44.28 44.81 44.95 44.48 44.35 44.67 44.90 44.77 45.85 44.79 44.97 46.04 47.89 49.30 49.87 49.88 50.16 50.83 55.04 55.71 55.98 56.60 56.67 57.52
51.12 51.33 51.60 53.36 50.59 49.97 48.41 47.80 47.45 47.25 46.78 45.87 45.16 44.85 45.19 45.81 45.59 44.52 43.67 43.16 44.84 44.37 43.45 42.86 43.03 42.96 43.31 42.87 41.91 42.75 45.63 48.10 46.76 49.04 47.73 47.66 47.79 48.33 50.01 52.28 52.63 53.38 54.00
50.46 49.96 49.13 49.32 48.33 47.53 46.89 46.37 46.27 45.14 45.14 44.22 43.80 43.56 43.66 44.35 44.42 43.14 42.60 42.03 43.33 42.64 42.07 42.01 41.68 41.69 41.11 40.88 42.29 43.12 45.07 44.56 46.68 47.82 45.81 45.64 45.61 45.65 45.73 47.62 48.88 49.56 50.82
49.26 48.91 48.82 48.52 47.47 47.06 45.84 45.66 44.84 44.14 42.98 42.58 41.72 41.67 42.20 42.24 42.35 41.97 41.67 41.05 41.82 40.95 40.51 40.21 40.04 40.48 40.47 40.07 43.56 42.74 44.28 45.06 45.65 44.28 43.67 44.04 42.95 42.97 42.96 43.27 43.49 44.55 47.22
48.65 48.88 49.05 48.56 48.32 46.31 44.81 43.40 42.29 40.30 40.54 39.76 40.61 41.61 41.04 40.72 41.19 40.39 40.46 40.15 40.58 39.58 39.43 39.58 39.42 38.27 39.41 39.76 37.71 39.58 40.44 41.55 42.87 43.16 42.91 41.49 40.89 40.75 40.65 40.69 41.22 41.80 42.57
47.88 48.37 48.89 49.10 48.47 46.40 45.44 44.38 43.14 42.39 40.25 39.47 39.13 39.20 39.92 40.05 40.32 40.83 39.07 38.93 39.16 38.85 38.17 37.62 37.42 36.02 37.41 38.48 35.32 36.29 35.39 39.38 37.92 40.44 41.03 41.04 38.81 39.50 38.93 39.16 39.27 39.30 40.20
47.92 48.09 48.92 48.98 48.69 46.45 44.35 44.05 42.40 42.15 41.07 39.43 37.58 36.84 37.80 39.28 39.65 38.82 38.90 38.40 38.16 37.96 36.96 36.18 35.98 35.34 34.33 36.15 36.41 34.46 31.61 30.40 33.35 37.12 36.63 37.20 38.16 37.77 37.81 38.29 37.83 37.24 38.26
47.33 48.23 48.71 48.73 46.00 44.95 43.94 42.32 40.97 39.33 38.48 37.18 35.25 34.99 36.10 37.55 38.04 38.78 38.18 37.40 37.19 37.33 36.70 36.73 36.81 35.17 34.40 32.75 34.40 36.65 34.87 33.60 29.08 28.54 34.45 34.69 38.32 39.05 37.67 37.07 36.53 36.89 36.36
46.91 44.92 45.00 44.68 44.03 43.47 42.93 41.86 39.33 37.28 36.65 36.09 36.42 35.18 35.28 35.85 36.60 37.75 36.73 35.91 35.13 35.72 35.74 35.71 35.01 34.68 34.12 33.08 32.07 31.70 32.46 32.11 31.28 29.45 29.56 30.70 34.24 39.29 38.43 37.09 37.72 37.99 36.41
44.84 43.82 42.96 41.83 40.91 40.67 39.88 39.52 38.24 36.74 35.94 35.69 34.49 33.90 34.33 34.37 34.60 35.17 36.18 34.58 34.50 34.41 34.51 34.94 35.17 34.53 33.66 33.00 32.78 32.17 31.59 31.02 30.94 31.15 30.29 28.85 31.61 37.69 38.52 37.58 36.34 37.53 38.24
MSLP
1012.14 1012.04 1011.77 1011.51 1012.06 1012.53 1012.78 1013.01 1013.32 1013.53 1013.70 1013.98 1014.23 1014.47 1014.85 1015.04 1015.13 1015.15 1015.21 1015.43 1015.69 1015.79 1015.92 1016.04 1016.14 1016.13 1016.21 1016.23 1016.34 1016.45 1016.31 1016.21 1016.16 1016.08 1016.00 1016.01 1015.99 1015.98 1015.98 1015.99 1015.71 1015.82 1015.90
1011.99 1012.09 1012.16 1012.00 1012.08 1012.64 1013.00 1013.27 1013.63 1013.85 1014.09 1014.36 1014.63 1014.91 1015.14 1015.36 1015.38 1015.45 1015.54 1015.66 1015.77 1015.99 1016.14 1016.34 1016.35 1016.34 1016.42 1016.48 1016.54 1016.52 1016.43 1016.29 1016.19 1016.06 1015.98 1016.02 1015.92 1015.88 1016.06 1016.05 1015.98 1015.87 1015.99
1012.37 1012.25 1012.37 1012.56 1012.36 1012.68 1013.12 1013.44 1013.84 1014.14 1014.38 1014.64 1014.91 1015.08 1015.35 1015.59 1015.84 1015.93 1015.99 1016.04 1016.12 1016.25 1016.42 1016.65 1016.67 1016.72 1016.80 1016.81 1016.75 1016.65 1016.51 1016.45 1016.32 1016.10 1015.89 1016.00 1015.86 1015.61 1015.75 1016.10 1016.06 1015.92 1016.05
1012.42 1012.61 1012.77 1012.99 1012.97 1012.99 1013.31 1013.65 1014.05 1014.38 1014.64 1014.87 1015.11 1015.35 1015.73 1016.04 1016.23 1016.41 1016.52 1016.56 1016.59 1016.65 1016.90 1016.95 1017.11 1017.13 1017.27 1017.16 1017.04 1016.90 1016.76 1016.55 1016.36 1016.24 1015.90 1015.83 1015.80 1015.46 1015.50 1015.89 1015.54 1015.78 1015.93
1012.61 1012.61 1013.05 1013.31 1013.50 1013.49 1013.81 1014.08 1014.40 1014.65 1014.89 1015.12 1015.55 1015.77 1016.06 1016.52 1016.76 1016.89 1017.03 1017.19 1017.15 1017.17 1017.31 1017.39 1017.55 1017.56 1017.55 1017.39 1017.26 1017.15 1016.99 1016.80 1016.51 1016.16 1015.87 1015.64 1015.53 1015.13 1015.23 1015.61 1015.21 1015.38 1015.72
1013.15 1013.01 1013.57 1013.69 1013.85 1013.85 1014.17 1014.53 1014.86 1015.16 1015.47 1015.66 1015.98 1016.19 1016.56 1016.95 1017.31 1017.46 1017.45 1017.70 1017.73 1017.64 1017.62 1017.65 1017.76 1017.73 1017.65 1017.58 1017.34 1017.28 1017.23 1017.04 1016.77 1016.35 1015.84 1015.60 1015.42 1015.18 1015.10 1015.31 1015.26 1015.02 1015.33
1013.72 1013.53 1013.82 1013.99 1014.15 1014.35 1014.58 1014.82 1015.11 1015.46 1015.75 1016.09 1016.31 1016.67 1017.09 1017.09 1017.70 1017.84 1017.84 1017.98 1018.13 1018.05 1017.83 1017.81 1017.94 1017.77 1017.78 1017.64 1017.44 1017.47 1017.30 1017.07 1016.73 1016.53 1016.08 1015.64 1015.52 1015.04 1015.16 1015.25 1015.29 1015.28 1015.19
1014.01 1013.89 1014.31 1014.45 1014.51 1014.91 1015.05 1015.23 1015.48 1015.77 1015.99 1016.15 1016.40 1016.71 1017.19 1017.28 1017.86 1018.17 1018.20 1018.23 1018.34 1018.29 1018.07 1018.05 1018.14 1017.87 1017.85 1017.76 1017.58 1017.48 1017.34 1017.10 1016.81 1016.61 1016.21 1015.69 1015.46 1015.00 1015.04 1015.32 1015.51 1015.51 1015.44
1014.51 1014.52 1014.85 1014.96 1014.98 1015.45 1015.73 1015.87 1016.16 1016.36 1016.37 1016.54 1016.61 1017.04 1016.98 1016.93 1018.04 1018.14 1018.50 1018.45 1018.44 1018.41 1018.24 1018.13 1018.10 1017.93 1017.74 1017.68 1017.53 1017.40 1017.36 1017.28 1017.07 1016.76 1016.49 1016.07 1015.59 1015.11 1015.24 1015.40 1015.39 1015.63 1015.57
1015.05 1015.13 1015.24 1015.47 1015.64 1015.91 1016.27 1016.46 1016.61 1016.77 1016.69 1016.59 1017.19 1017.13 1017.23 1016.94 1018.02 1017.97 1018.52 1018.44 1018.31 1018.30 1018.15 1018.03 1018.04 1017.73 1017.56 1017.53 1017.31 1017.27 1017.31 1017.12 1017.05 1016.75 1016.68 1016.47 1015.97 1015.76 1015.91 1015.90 1015.92 1016.05 1015.94
1015.28 1015.37 1015.48 1015.88 1016.12 1016.34 1016.42 1016.54 1016.70 1016.76 1016.91 1017.09 1017.10 1017.30 1017.50 1017.50 1017.70 1018.27 1018.47 1018.43 1018.28 1018.05 1018.06 1018.05 1017.83 1017.75 1017.69 1017.70 1017.60 1017.38 1017.24 1017.28 1017.20 1016.97 1016.98 1016.77 1016.48 1016.32 1016.27 1016.20 1016.22 1016.22 1016.17
1015.20 1015.41 1015.61 1015.79 1016.09 1016.34 1016.36 1016.60 1016.86 1016.85 1017.24 1017.44 1017.24 1017.27 1017.42 1017.34 1017.81 1018.37 1018.41 1018.31 1018.37 1018.30 1018.26 1018.14 1017.83 1017.79 1017.79 1017.85 1017.70 1017.55 1017.59 1017.50 1017.45 1017.21 1017.05 1016.99 1016.81 1016.63 1016.44 1016.43 1016.50 1016.46 1016.32
1015.13 1015.43 1015.58 1015.71 1015.85 1015.88 1016.10 1016.61 1016.94 1017.06 1017.44 1017.65 1017.79 1017.66 1017.57 1017.77 1018.18 1018.46 1018.60 1018.62 1018.63 1018.67 1018.67 1018.48 1018.24 1018.19 1018.14 1018.05 1017.93 1017.80 1017.80 1017.77 1017.69 1017.41 1017.21 1017.08 1016.87 1016.64 1016.52 1016.51 1016.49 1016.30 1016.20
1014.97 1015.35 1015.46 1015.49 1015.61 1015.72 1015.95 1016.57 1016.89 1017.27 1017.74 1018.04 1018.15 1018.07 1018.11 1018.41 1018.67 1018.80 1018.96 1019.02 1019.08 1019.16 1019.06 1018.92 1018.80 1018.64 1018.42 1018.16 1018.05 1018.01 1017.92 1017.92 1017.82 1017.60 1017.46 1017.17 1017.02 1016.77 1016.65 1016.50 1016.44 1016.41 1016.24
1014.52 1015.06 1015.24 1015.47 1015.53 1015.56 1016.11 1016.62 1016.93 1017.40 1017.89 1018.32 1018.41 1018.46 1018.53 1018.85 1019.07 1019.18 1019.36 1019.41 1019.54 1019.33 1019.22 1019.19 1019.18 1019.08 1018.86 1018.63 1018.42 1018.31 1018.11 1017.97 1017.80 1017.78 1017.86 1017.74 1017.62 1017.63 1017.41 1017.06 1016.73 1016.52 1016.41
1014.33 1015.00 1015.16 1015.39 1015.41 1015.65 1016.28 1016.56 1017.11 1017.56 1018.07 1018.47 1018.77 1018.90 1018.91 1019.14 1019.33 1019.55 1019.86 1019.94 1019.77 1019.58 1019.58 1019.53 1019.49 1019.38 1019.19 1018.99 1018.89 1018.63 1018.39 1018.07 1017.86 1018.04 1018.08 1018.14 1018.03 1018.02 1017.87 1017.67 1017.29 1017.06 1016.87
1014.15 1014.65 1015.34 1015.63 1015.90 1016.05 1016.53 1016.92 1017.35 1017.81 1018.31 1018.90 1019.27 1019.33 1019.43 1019.50 1019.56 1019.81 1020.11 1020.17 1020.01 1019.79 1019.69 1019.79 1019.71 1019.55 1019.53 1019.32 1019.31 1018.93 1018.65 1018.36 1018.39 1018.48 1018.62 1018.69 1018.69 1018.73 1018.70 1018.60 1018.55 1018.34 1017.91
1013.79 1014.77 1015.33 1015.77 1016.28 1016.60 1016.95 1017.28 1017.68 1018.16 1018.65 1019.22 1019.50 1019.68 1019.74 1019.86 1019.85 1020.11 1020.34 1020.36 1020.17 1020.08 1020.17 1020.16 1020.14 1019.98 1019.90 1019.96 1019.75 1019.37 1019.03 1018.61 1018.70 1019.02 1019.53 1019.71 1019.82 1019.82 1019.70 1019.67 1019.47 1019.24 1018.92
1013.54 1014.62 1015.63 1016.21 1016.69 1017.05 1017.45 1017.71 1018.04 1018.54 1019.07 1019.61 1019.91 1020.10 1020.15 1020.18 1020.18 1020.27 1020.49 1020.65 1020.53 1020.63 1020.62 1020.55 1020.34 1020.26 1020.37 1020.20 1019.82 1019.74 1019.40 1019.20 1019.26 1019.76 1020.18 1020.43 1020.62 1020.69 1020.79 1020.61 1020.25 1020.03 1019.67
1013.72 1014.69 1015.71 1016.55 1017.11 1017.48 1017.63 1017.91 1018.55 1019.00 1019.52 1019.82 1020.29 1020.53 1020.60 1020.58 1020.56 1020.61 1020.73 1020.88 1020.79 1020.90 1020.96 1020.82 1020.70 1020.70 1020.67 1020.52 1020.09 1020.05 1020.05 1020.04 1020.12 1020.66 1021.16 1021.33 1021.33 1021.51 1021.49 1021.50 1021.03 1020.75 1020.51
1013.58 1014.66 1015.64 1016.45 1017.09 1017.55 1017.96 1018.41 1018.83 1019.42 1019.85 1020.37 1020.63 1020.85 1021.04 1021.09 1021.00 1021.02 1020.97 1021.02 1021.09 1021.16 1021.25 1021.05 1020.80 1021.11 1021.05 1020.86 1020.75 1020.79 1020.84 1020.97 1021.08 1021.43 1021.57 1021.91 1022.06 1022.29 1022.27 1022.05 1022.00 1021.72 1021.28
1013.29 1014.33 1015.33 1016.11 1016.75 1017.14 1017.53 1017.92 1018.39 1019.07 1019.95 1020.42 1020.93 1021.27 1021.36 1021.34 1021.18 1021.06 1021.18 1021.20 1021.22 1021.34 1021.43 1021.32 1021.21 1021.49 1021.63 1021.46 1021.81 1021.87 1021.76 1021.60 1021.96 1022.06 1022.15 1022.46 1022.96 1022.87 1022.92 1022.91 1022.68 1022.65 1022.10
1012.83 1013.80 1014.85 1015.77 1016.33 1016.93 1017.32 1017.89 1018.58 1019.24 1020.12 1020.87 1021.36 1021.58 1021.66 1021.57 1021.50 1021.40 1021.25 1021.38 1021.56 1021.62 1021.74 1021.85 1021.89 1022.10 1022.39 1022.21 1022.14 1022.35 1022.54 1023.23 1023.11 1022.69 1022.79 1023.37 1023.44 1023.64 1023.64 1023.63 1023.37 1023.19 1022.76
1012.55 1013.36 1014.21 1015.04 1016.25 1016.94 1017.01 1017.61 1018.22 1018.97 1019.99 1020.89 1021.22 1021.52 1021.72 1021.61 1021.47 1021.51 1021.55 1021.71 1021.81 1021.90 1022.14 1022.33 1022.37 1022.60 1022.68 1022.98 1023.00 1022.96 1023.20 1023.51 1023.81 1023.82 1023.52 1023.72 1023.84 1023.97 1024.08 1023.98 1023.70 1023.54 1023.39
1012.40 1013.30 1014.21 1015.27 1016.06 1016.73 1017.11 1017.53 1018.45 1019.34 1020.01 1020.55 1021.13 1021.57 1021.86 1021.92 1021.89 1021.94 1022.03 1022.11 1022.04 1022.06 1022.45 1022.72 1022.77 1023.14 1023.33 1023.70 1023.55 1023.73 1024.00 1024.14 1024.49 1024.52 1024.62 1024.51 1024.29 1024.30 1024.24 1024.12 1024.01 1024.08 1024.02
1012.59 1013.42 1014.36 1015.40 1016.34 1016.86 1017.45 1017.87 1018.51 1019.29 1020.12 1020.57 1021.14 1021.70 1022.00 1022.11 1022.27 1022.32 1022.36 1022.39 1022.28 1022.47 1022.84 1023.01 1023.20 1023.56 1023.58 1024.00 1024.19 1024.25 1024.48 1024.76 1025.18 1025.00 1024.97 1024.93 1024.57 1024.25 1024.46 1024.44 1024.51 1024.46 1024.23
Wind_Speed
6 4 11 18 16 14 14 15 14 13 15 14 14 14 13 13 12 12 12 11 10 11 11 10 9 9 8 9 9 8 8 8 9 9 9 9 8 5 2 4 6 7 8
10 8 12 15 17 15 14 15 14 14 14 14 14 14 13 12 13 12 11 11 10 10 10 10 10 10 10 9 8 8 8 9 9 9 9 7 8 7 2 3 5 6 7
11 10 12 15 18 16 15 15 14 14 15 15 14 15 15 15 15 15 15 15 15 14 13 12 12 12 11 10 10 9 8 9 11 12 14 5 5 7 4 4 4 7 4
11 11 12 17 17 19 18 18 17 17 18 17 16 16 16 15 15 14 15 13 12 13 12 11 11 9 9 9 8 9 10 10 10 13 9 6 5 9 7 10 10 6 4
11 13 13 16 16 19 19 19 17 17 17 17 17 17 17 15 15 15 14 12 11 10 10 10 10 10 10 10 9 9 10 11 11 10 8 9 5 9 11 10 9 8 5
10 14 13 16 17 19 20 20 20 20 18 19 17 18 17 16 15 15 15 13 12 12 11 11 10 10 11 11 11 10 10 11 13 7 8 8 8 7 11 9 8 10 8
10 12 12 17 18 20 21 21 20 19 19 19 18 18 15 16 15 14 14 13 12 11 11 11 10 11 11 10 10 10 9 9 6 6 9 8 8 8 10 8 7 6 8
11 13 11 19 21 19 19 18 18 18 17 17 17 17 15 16 14 13 13 12 11 10 11 11 10 10 10 11 10 9 9 10 7 6 8 9 10 2 1 2 1 1 2
10 11 9 10 17 18 16 17 16 16 16 15 14 13 15 17 12 13 10 10 9 8 8 9 9 9 10 11 11 10 10 11 7 5 8 7 11 1 6 1 2 5 5
8 8 9 9 9 8 8 15 14 13 13 13 9 10 12 16 11 12 8 7 7 6 5 7 8 10 11 11 12 7 10 11 7 6 4 5 20 19 16 18 16 14 13
8 8 8 8 7 6 5 9 13 14 12 9 6 6 5 4 6 5 6 4 4 9 2 9 7 12 12 12 13 13 10 3 5 4 3 13 17 17 16 15 14 13 15
8 6 8 9 9 7 7 6 5 6 4 4 5 5 4 6 4 3 3 3 1 13 11 12 13 12 8 4 4 8 4 5 5 6 3 11 18 16 15 15 14 14 14
9 5 6 8 9 8 7 4 2 3 4 4 6 5 5 4 4 3 3 4 4 9 4 6 6 4 6 4 4 4 5 5 3 4 7 11 16 17 17 15 15 15 15
9 7 7 7 7 7 5 4 5 5 4 4 5 7 5 4 5 4 4 5 5 4 5 5 4 5 6 6 6 6 6 5 3 3 5 13 16 20 18 15 13 14 15
12 8 7 6 5 7 8 5 5 6 6 5 5 6 5 5 4 4 4 4 3 3 4 5 5 5 6 6 6 6 6 6 5 3 3 18 23 24 22 21 18 16 16
12 9 7 7 5 7 7 7 5 7 7 6 5 5 6 4 4 5 5 4 4 4 4 4 4 5 5 5 6 6 6 5 5 6 5 5 14 19 23 23 23 22 24
11 9 7 6 7 8 8 6 5 6 7 5 4 6 6 6 6 6 4 4 4 4 6 5 6 5 5 5 6 5 5 6 7 7 7 9 10 19 27 28 27 27 27
13 10 8 8 7 7 7 5 5 6 6 5 5 4 6 6 6 6 4 4 4 5 5 4 4 4 4 4 5 5 4 5 6 11 12 10 10 9 16 23 24 25 25
14 11 8 8 7 7 7 6 6 7 7 5 5 4 6 6 6 6 4 4 4 4 4 4 3 3 3 5 4 4 4 5 10 11 13 13 13 12 8 17 21 23 24
12 11 10 7 7 7 5 6 5 6 5 5 5 5 6 5 6 5 4 5 4 4 4 4 5 5 4 5 5 5 5 7 9 9 10 10 12 12 11 12 10 11 22
15 14 12 10 7 5 3 4 5 5 5 4 5 6 6 5 6 6 4 5 4 5 4 6 3 5 8 7 4 4 5 8 9 7 8 8 11 10 11 10 9 8 9
15 14 13 11 9 6 6 4 4 6 4 5 4 5 5 5 4 5 5 5 6 5 6 7 6 3 4 7 3 1 2 2 5 9 8 8 8 7 9 11 11 12 10
17 16 14 12 10 4 8 8 6 7 6 4 3 4 3 5 5 6 6 6 6 5 4 6 6 7 4 5 8 4 3 1 3 3 8 7 7 6 7 10 12 12 12
14 14 14 12 10 8 9 9 11 5 6 4 4 4 4 6 6 6 6 6 6 4 6 5 6 5 4 5 3 6 9 4 3 3 3 5 3 8 8 8 11 11 13
13 9 11 11 8 7 6 7 5 6 6 4 6 7 6 5 6 6 6 6 6 5 6 6 6 6 4 4 4 3 4 5 4 4 2 5 3 5 4 5 7 5 8
12 12 11 10 7 8 7 8 9 12 9 7 5 5 4 4 4 6 6 6 6 6 5 5 5 6 5 5 5 5 6 4 4 3 2 3 4 3 4 5 7 7 6
Wind_Direction
77 96 108 109 104 98 93 92 87 85 89 96 98 98 92 88 88 88 85 82 78 76 72 66 59 53 46 44 40 27 20 14 4 351 349 352 330 305 59 42 45 111 96
103 101 99 103 106 102 98 95 93 92 93 94 93 91 88 85 81 74 74 71 70 67 61 51 41 34 25 36 29 22 12 358 349 334 328 328 304 281 288 97 81 90 85
96 88 95 92 97 101 101 98 97 96 95 93 92 89 82 80 76 73 69 67 66 63 57 51 42 32 24 21 17 12 7 356 343 332 321 309 269 249 197 172 120 101 105
102 91 94 89 92 93 92 93 95 101 97 92 87 85 86 80 78 79 72 71 72 65 54 47 42 35 26 22 16 7 2 358 348 332 315 306 286 207 219 190 144 130 135
87 90 86 93 93 94 93 91 92 88 85 87 88 86 83 81 78 78 73 69 67 61 55 46 35 28 21 20 15 5 355 349 336 324 308 311 291 180 186 194 151 146 166
93 93 91 94 97 96 100 99 96 92 90 87 91 88 84 81 78 74 72 64 60 56 49 39 27 20 11 4 4 2 355 347 331 322 314 314 330 224 193 179 163 144 132
99 93 89 93 91 93 96 96 96 94 93 93 91 90 85 83 75 71 68 61 50 47 42 31 15 10 357 351 351 343 339 334 337 323 314 318 335 223 201 178 173 152 151
100 95 96 98 92 91 94 96 95 97 100 101 103 102 100 86 80 71 64 58 48 40 36 23 2 360 347 341 337 328 322 321 328 313 309 311 311 299 213 143 233 178 163
94 94 92 92 99 96 93 95 99 100 100 102 105 113 109 105 97 81 66 62 52 46 35 15 358 351 350 343 329 320 310 331 329 312 309 313 302 349 351 303 4 325 340
101 103 103 98 99 102 116 117 115 109 110 112 114 109 109 102 108 89 86 77 64 56 28 356 341 353 357 349 1 316 324 348 332 328 331 14 36 36 33 41 34 10 360
130 130 125 120 119 117 115 129 122 116 110 109 110 136 133 125 104 106 114 104 35 34 346 351 13 38 24 6 13 19 17 355 343 354 36 35 26 20 19 21 17 8 358
140 137 142 143 145 156 142 142 139 123 120 78 48 73 87 86 55 134 121 113 19 44 25 20 34 26 16 2 4 13 8 359 355 359 27 25 13 7 6 4 0 354 348
153 156 163 158 166 174 150 167 144 108 92 74 46 22 51 82 63 62 55 39 39 35 15 22 20 14 2 7 9 6 5 6 3 353 350 6 8 5 357 352 348 349 349
154 159 184 187 178 210 148 148 135 118 105 83 53 33 57 61 55 52 50 46 46 20 18 24 13 356 359 359 6 14 15 3 351 353 355 2 2 4 1 354 353 351 349
156 164 187 178 164 119 104 118 94 90 89 84 58 40 57 60 67 65 59 55 49 29 26 18 9 2 357 356 17 16 360 351 359 16 14 35 57 39 34 25 15 10 357
150 160 176 151 127 108 104 99 107 98 94 78 65 54 52 61 78 74 54 38 25 32 23 20 14 6 353 15 10 352 344 344 6 41 57 36 48 45 33 33 34 31 29
148 153 149 127 101 103 109 105 103 113 102 94 80 57 48 43 61 82 67 32 3 41 38 20 8 8 9 14 355 339 336 8 36 58 39 35 25 46 45 44 39 33 29
137 127 128 112 114 107 109 108 100 106 108 104 91 74 54 42 58 78 65 27 10 51 41 23 11 360 15 19 340 332 7 57 56 60 56 47 43 34 37 38 41 33 30
128 126 114 111 108 104 99 102 98 98 94 92 80 74 56 44 43 84 64 24 51 59 36 19 0 32 21 359 335 3 25 34 53 64 59 53 47 39 30 31 38 34 29
121 111 109 108 113 109 108 102 90 91 85 83 78 68 58 44 49 78 70 48 69 66 40 17 24 17 27 346 4 23 47 59 71 67 63 58 54 43 34 26 29 23 26
124 124 125 129 145 138 136 133 120 123 108 86 83 84 71 52 59 65 72 57 61 68 60 36 26 37 29 6 51 24 49 63 63 72 67 60 49 42 38 32 29 19 20
136 137 142 152 172 180 164 159 137 135 112 117 106 101 97 78 77 79 80 62 62 67 50 43 44 39 37 29 48 30 22 7 30 58 53 62 49 42 37 35 34 21 21
147 148 151 162 187 166 129 117 109 108 111 106 104 99 95 87 75 71 65 66 65 62 68 51 46 43 49 25 39 98 65 20 333 22 56 42 58 47 40 36 31 26 20
151 148 153 163 137 148 134 130 145 139 148 147 148 126 110 93 76 74 71 73 78 63 59 58 50 54 62 42 13 32 61 73 75 349 20 32 68 58 51 45 34 34 25
142 132 126 128 127 111 148 139 128 122 121 132 129 121 108 88 81 80 78 74 70 69 70 80 63 67 63 76 63 29 46 61 29 62 43 352 8 78 55 49 42 32 27
130 129 124 115 106 100 101 121 129 134 141 132 132 134 135 110 88 80 81 77 75 72 76 90 83 84 82 90 82 63 67 66 40 35 28 324 332 91 70 53 45 20 15